Home   Weather   New City   Past weeks

Flag for USA Past Weather in New City, New York, USA — Yesterday and Last 2 Weeks

Now
63 °F

Broken clouds.


Feels Like: 63 °F
Forecast: 53 / 70 °F
Wind: 8 mph from East

Location: Westchester County Airport

Current Time: Sep 28, 2016 at 11:35:27 AM

Latest Report: Sep 28, 2016 at 10:56 AM


Visibility: 10 mi

Pressure: 30.12 "Hg

Humidity: 81%

Dew Point: 57 °F

Location of New CityLocation

Past Weather in New City — Graph

°F

New City Temperature Yesterday

Maximum temperature yesterday: 72 °F (at 2:56 PM)
Minimum temperature yesterday: 58 °F (at 11:56 PM)
Average temperature yesterday: 66 °F

High & Low Weather Summary for the Past Weeks

 TemperatureHumidityPressure
High88 °F (Sep 14, 2:56 PM)97% (Sep 19, 3:56 AM)30.34 "Hg (Sep 19, 3:56 AM)
Low45 °F (Sep 25, 5:56 AM)24% (Sep 25, 2:56 PM)29.87 "Hg (Sep 27, 3:56 PM)
Average67 °F69%30.10 "Hg
* Reported Sep 13 9:56 AM — Sep 28 9:56 AM, New City, Weather by CustomWeather, © 2016

Note: Actual official high and low records may vary slightly from our data, if they occured in-between our weather recording intervals... More about our weather records

Advertising

New City Weather History for the Previous 24 Hours

Scroll right to see more
 ConditionsComfort  
Time TempWeatherWind HumidityBarometerVisibility
9:56 AM
Wed, Sep 28
62 °FPartly sunny.14 mph83%30.11 "Hg10 mi
8:56 AM59 °FFog.10 mph93%30.10 "Hg1 mi
7:56 AM58 °FPartly sunny.8 mph93%30.08 "Hg7 mi
6:56 AM59 °FSunny.7 mph87%30.05 "Hg10 mi
5:56 AM54 °FClear.No wind93%30.03 "Hg10 mi
4:56 AM56 °FClear.6 mph90%30.02 "Hg10 mi
3:56 AM57 °FClear.5 mph87%30.01 "Hg10 mi
2:56 AM58 °FClear.6 mph90%30.00 "Hg7 mi
1:56 AM59 °FFog.6 mph93%30.00 "Hg4 mi
12:56 AM59 °FFog.6 mph93%29.98 "Hg6 mi
11:56 PM
Tue, Sep 27
58 °FClear.5 mph93%29.98 "Hg8 mi
10:56 PM60 °FClear.3 mph93%29.96 "Hg9 mi
9:56 PM60 °FClear.3 mph90%29.96 "Hg10 mi
8:56 PM61 °FClear.No wind90%29.94 "Hg10 mi
7:56 PM62 °FClear.No wind86%29.93 "Hg10 mi
6:56 PM64 °FClear.No wind75%29.90 "Hg10 mi
5:56 PM70 °FPassing clouds.3 mph55%29.88 "Hg10 mi
4:56 PM72 °FPassing clouds.6 mph49%29.87 "Hg10 mi
3:56 PM72 °FPassing clouds.No wind53%29.87 "Hg10 mi
2:56 PM72 °FScattered clouds.5 mph57%29.88 "Hg10 mi
1:56 PM71 °FPartly sunny.5 mph59%29.89 "Hg10 mi
12:56 PM70 °FScattered clouds.No wind64%29.90 "Hg10 mi
11:56 AM68 °FScattered clouds.5 mph73%29.92 "Hg10 mi
Weather by CustomWeather, © 2016

See weather overviewHow to use our weather pages